Location: Home
(42.5358°N, 72.7383°W)
Time: 00:46:15
(UTC-05:00)

Vanguard 1 Rocket - Pass Details

Date: 04 December 2021
Orbit: 651 x 4224 km, 34.3° (Epoch: 23 January)

Event Time Altitude Azimuth Distance (km) Brightness Sun altitude
Exits shadow 01:07:59 23° 102° (ESE) 4,085 10.7 -62.8°
Drops below altitude 10° 01:14:52 10° 86° (E) 5,840 11.7 -61.9°
Sets 01:21:13 0° 79° (E) 7,439 12.4 -60.9°
